Regional Weather Roundup
Issued by NWS

Home | Current Version | Previous Version | Graphics & Text | Print | Product List | Glossary Off
Versions: 1 2 3 4 5 6 7 8 9 10 11 12 13 14 15 16 17 18 19 20 21 22 23 24 25 26 27 28 29 30 31 32 33 34 35 36 37 38 39 40 41 42 43 44 45 46 47 48 49 50

000
ASUS43 KMKX 231311
RWRWI

WISCONSIN REGIONAL WEATHER ROUNDUP
NATIONAL WEATHER SERVICE MILWAUKEE/SULLIVAN WI
800 AM CDT TUE AUG 23 2016

NOTE: "FAIR" INDICATES FEW OR NO CLOUDS BELOW 12,000 FEET WITH NO
SIGNIFICANT WEATHER AND/OR OBSTRUCTIONS TO VISIBILITY.

WIZ001-002-006>008-014>016-023>028-231400-
NORTHWEST WISCONSIN

CITY           SKY/WX    TMP DP  RH WIND       PRES   REMARKS
SUPERIOR ARPT  SUNNY     69  62  76 SW9G16    29.91R
ASHLAND        SUNNY     69  61  75 S12       29.95S
HAYWARD        SUNNY     68  60  75 S12       29.99S
SIREN          SUNNY     68  59  72 S12G23    29.95S
CUMBERLAND     SUNNY     64  59  82 S9        30.00S
RICE LAKE      SUNNY     67  59  77 SE7       30.02S
CHETEK         NOT AVBL
LADYSMITH      SUNNY     65  61  87 S8        30.05S
EAU CLAIRE     SUNNY     68  60  75 S8        30.02S
MENOMONIE      MOSUNNY   65  61  85 E5        30.02S
NEW RICHMOND   MOSUNNY   67  59  73 S10G16    29.98S
OSCEOLA        MOSUNNY   67  60  77 S9        29.99S
$$

WIZ003>005-009-010-017-018-231400-
NORTH CENTRAL WISCONSIN

CITY           SKY/WX    TMP DP  RH WIND       PRES   REMARKS
MANITOWISH WTR NOT AVBL
ARBOR VITAE    SUNNY     64  61  89 S10       30.06S
WOODRUFF       SUNNY     64  61  89 S10       30.06S
RHINELANDER    SUNNY     65  62  90 S12       30.09S
EAGLE RIVER    SUNNY     64  61  90 SW7       30.07S
LAND O LAKES   SUNNY     64  61  87 S5        30.07S
PHILLIPS       CLOUDY    63  60  90 S7        30.05S
TOMAHAWK       SUNNY     60  59  97 CALM      30.09S
MEDFORD        SUNNY     63  63 100 S8        30.08S
MERRILL        SUNNY     65  61  86 S6        30.09S
$$

WIZ029-030-035-036-043>047-231400-
CENTRAL WISCONSIN

CITY           SKY/WX    TMP DP  RH WIND       PRES   REMARKS
WAUSAU         SUNNY     65  60  84 SW3       30.09R
MOSINEE        SUNNY     64  63  94 S10       30.11S
MARSHFIELD     SUNNY     63  59  87 S9        30.09R
STEVENS POINT  SUNNY     64  58  82 S8        30.11S
WAUPACA        SUNNY     65  63  94 SE5       30.13R
WAUTOMA        SUNNY     64  60  87 S5        30.13R
WISC RAPIDS    SUNNY     66  61  84 S6        30.12R
CAMP DOUGLAS   MOSUNNY   66  61  82 S7        30.10R
$$

WIZ011>013-019>022-031-037>040-048>050-231400-
NORTHEAST WISCONSIN

CITY           SKY/WX    TMP DP  RH WIND       PRES   REMARKS
ANTIGO         SUNNY     61  59  93 CALM      30.11S
SHAWANO        SUNNY     66  60  79 S3        30.12R
OCONTO         NOT AVBL
STURGEON BAY   SUNNY     68  58  70 S14       30.13
GREEN BAY      SUNNY     65  62  90 S8        30.13R
MANITOWOC      SUNNY     66  57  72 S8        30.16R
APPLETON       MOSUNNY   64  55  72 S7        30.12R
CLINTONVILLE   SUNNY     63  59  88 S6        30.11S
OSHKOSH        SUNNY     65  59  81 S8        30.14R
$$

WIZ032>034-041-042-053>061-231400-
SOUTHWEST WISCONSIN

CITY           SKY/WX    TMP DP  RH WIND       PRES   REMARKS
LA CROSSE      MOSUNNY   70  67  90 S14       30.06R
SPARTA         MOSUNNY   67  60  79 SW5       30.09R
VIROQUA        MOSUNNY   64  59  84 S7        30.11R
BOSCOBEL       SUNNY     68  60  75 CALM      30.11S
PRAIRIE DU CHI MOSUNNY   65  59  80 E5        30.10R
PLATTEVILLE    SUNNY     64  62  93 SE8       30.14S
$$

WIZ056-057-062-063-064-067-068-231400-
SOUTH CENTRAL WISCONSIN

CITY           SKY/WX    TMP DP  RH WIND       PRES   REMARKS
REEDSBURG      NOT AVBL
BARABOO/DELLS  SUNNY     66  57  71 S10       30.12S
LONE ROCK      SUNNY     67  59  75 SE3       30.13R
MINERAL POINT  SUNNY     63  61  94 SE8       30.14S
MADISON        MOSUNNY   65  58  78 S9        30.15R
MIDDLETON      SUNNY     67  59  73 SW6       30.15R
WATERTOWN      SUNNY     64  60  87 S6        30.16R
MONROE         SUNNY     63  59  88 S10       30.16R
JANESVILLE     MOSUNNY   64  61  88 VRB6      30.16R
$$

WIZ051-052-058>065-066-070>072-231400-
SOUTHEAST WISCONSIN

CITY           SKY/WX    TMP DP  RH WIND       PRES   REMARKS
MILWAUKEE      MOSUNNY   68  59  73 SW10      30.18R
WAUKESHA       SUNNY     63  55  77 S7        30.19R
MILWAUKEE/TIMM SUNNY     66  55  68 S6        30.19R
RACINE         SUNNY     69  59  70 SW9       30.20R
BURLINGTON     SUNNY     61  58  91 SW3       30.18S
KENOSHA        SUNNY     67  60  78 S8        30.19S
FOND DU LAC    SUNNY     67  59  75 S7        30.15R
SHEBOYGAN      SUNNY     64  58  80 S7        30.16R
WEST BEND      SUNNY     63  57  82 S5        30.17S
JUNEAU         SUNNY     64  58  82 S8        30.17R
$$

LSZ147-162-231400-
LAKE SUPERIOR

STATION/POSITION TIME  TEMP    WIND        PRES    WAVE
                       AIR SEA DIR/SP/G            HT/PER
                 (UTC) (F)     (DEG/KT/KT) (MB)    (FT/S)
W MID LAKE BUOY  1250   69 66  210/ 14/ 16 1013.2R   2/ 5
DEVILS ISLAND    1200   69     170/  7/  9 1013.2R
SAXON HARBOR     1240   71     200/ 13/ 20 1013.5F
$$

LMZ867-665-643>646-231400-
LAKE MICHIGAN

STATION/POSITION TIME  TEMP    WIND        PRES    WAVE
                       AIR SEA DIR/SP/G            HT/PER
                 (UTC) (F)     (DEG/KT/KT) (MB)    (FT/S)
CHAMBERS ISLAND  1200   69     180/  4/ 12 1019.3R
S GREEN BAY BUOY 1200   68 73  180/ 17/ 19 1019.0R
N MID LAKE BUOY  1250   72 71  220/ 21/ 25 1018.4R   6/ 6
NORTHPORT PIER   1100   67     180/  5/ 12 1019.3R
SISTER BAY       1207   69     190/ 16/ 19   N/A
KEWAUNEE LAKESHO 1200   65     190/  8/ 10 1020.0R
SHEBOYGAN LAKESH 1300   64     180/ 11/ 12 1021.5R
PORT WASHINGTON  1200   64     200/  1/  2 1022.0S
ATWATER BUOY     1300   64 62  180/  8/ 10   N/A
MILWAUKEE LAKESH 1210   65     190/  4/  5   N/A
S MID LAKE BUOY  1250   73 75  190/ 14/ 16 1021.9R   3/ 5
KENOSHA   LAKESH 1300   69     210/  9/ 12 1022.0R
$$

TC  - TEMPERATURE IN CELSIUS
VSB - VISIBILITY IN STATUTE MILES
WCI - WIND CHILL INDEX
HX  - HEAT INDEX




USA.gov is the U.S. government's official web portal to all federal, state and local government web resources and services.